Time,TemperatureF,DewpointF,PressureIn,WindDirection,WindDirectionDegrees,WindSpeedMPH,WindSpeedGustMPH,Humidity,HourlyPrecipIn,Conditions,Clouds,dailyrainin,SoftwareType,DateUTC
2013-01-27 00:00:00,13.3,3.8,30.27,WSW,248,0.4,1.1,65,0.00,,,0.00,WUHU216HW,2013-01-27 05:00:00,
2013-01-27 00:02:00,13.3,3.8,30.27,SW,225,0.4,0.7,65,0.00,,,0.00,WUHU216HW,2013-01-27 05:02:00,
2013-01-27 00:03:00,13.3,3.8,30.27,WNW,293,0.0,1.6,65,0.00,,,0.00,WUHU216HW,2013-01-27 05:03:00,
2013-01-27 00:08:00,13.3,3.8,30.27,West,270,0.0,1.6,65,0.00,,,0.00,WUHU216HW,2013-01-27 05:08:00,
2013-01-27 00:13:00,13.3,3.8,30.27,SW,225,0.4,1.6,65,0.00,,,0.00,WUHU216HW,2013-01-27 05:13:00,
2013-01-27 00:18:00,13.3,3.8,30.27,WSW,248,0.4,1.8,65,0.00,,,0.00,WUHU216HW,2013-01-27 05:18:00,
2013-01-27 00:23:00,13.3,3.8,30.27,WSW,248,1.1,3.1,65,0.00,,,0.00,WUHU216HW,2013-01-27 05:23:00,
2013-01-27 00:28:00,13.3,3.8,30.27,West,270,0.0,3.1,65,0.00,,,0.00,WUHU216HW,2013-01-27 05:28:00,
2013-01-27 00:33:00,13.3,4.1,30.28,SW,225,0.0,2.5,66,0.00,,,0.00,WUHU216HW,2013-01-27 05:33:00,
2013-01-27 00:39:00,13.3,4.1,30.28,WNW,293,0.2,2.5,66,0.00,,,0.00,WUHU216HW,2013-01-27 05:39:00,
2013-01-27 00:44:00,13.3,4.1,30.28,North,0,0.0,2.5,66,0.00,,,0.00,WUHU216HW,2013-01-27 05:44:00,
2013-01-27 00:49:00,13.3,4.1,30.28,WSW,248,0.2,0.2,66,0.00,,,0.00,WUHU216HW,2013-01-27 05:49:00,
2013-01-27 00:54:00,13.3,4.1,30.28,SSW,203,0.2,0.2,66,0.00,,,0.00,WUHU216HW,2013-01-27 05:54:00,
2013-01-27 00:59:00,13.3,4.1,30.28,West,270,0.4,1.3,66,0.00,,,0.00,WUHU216HW,2013-01-27 05:59:00,
2013-01-27 01:04:00,13.3,4.1,30.28,WSW,248,0.2,1.3,66,0.00,,,0.00,WUHU216HW,2013-01-27 06:04:00,
2013-01-27 01:09:00,13.1,3.9,30.28,SSW,203,0.9,0.9,66,0.00,,,0.00,WUHU216HW,2013-01-27 06:09:00,
2013-01-27 01:14:00,13.1,4.2,30.29,SSW,203,1.1,1.8,67,0.00,,,0.00,WUHU216HW,2013-01-27 06:14:00,
2013-01-27 01:19:00,13.1,4.2,30.29,West,270,1.1,2.5,67,0.00,,,0.00,WUHU216HW,2013-01-27 06:19:00,
2013-01-27 01:24:00,13.1,4.2,30.29,WSW,248,0.4,2.5,67,0.00,,,0.00,WUHU216HW,2013-01-27 06:24:00,
2013-01-27 01:30:00,13.1,4.2,30.29,SW,225,0.9,1.1,67,0.00,,,0.00,WUHU216HW,2013-01-27 06:30:00,
2013-01-27 01:35:00,12.9,4.1,30.29,West,270,0.4,1.1,67,0.00,,,0.00,WUHU216HW,2013-01-27 06:35:00,
2013-01-27 01:40:00,13.1,4.2,30.29,West,270,0.4,0.9,67,0.00,,,0.00,WUHU216HW,2013-01-27 06:40:00,
2013-01-27 01:45:00,12.9,4.4,30.30,WSW,248,0.4,0.4,68,0.00,,,0.00,WUHU216HW,2013-01-27 06:45:00,
2013-01-27 01:50:00,13.1,4.6,30.30,West,270,1.3,1.8,68,0.00,,,0.00,WUHU216HW,2013-01-27 06:50:00,
2013-01-27 01:55:00,12.9,4.4,30.30,WSW,248,1.3,1.8,68,0.00,,,0.00,WUHU216HW,2013-01-27 06:55:00,
2013-01-27 02:00:00,12.9,4.4,30.30,WSW,248,0.9,1.3,68,0.00,,,0.00,WUHU216HW,2013-01-27 07:00:00,
2013-01-27 02:05:00,12.9,4.4,30.30,WSW,248,0.2,1.3,68,0.00,,,0.00,WUHU216HW,2013-01-27 07:05:00,
2013-01-27 02:13:00,12.8,4.0,30.31,WSW,248,0.4,1.1,67,0.00,,,0.00,WUHU216HW,2013-01-27 07:13:00,
2013-01-27 02:18:00,12.8,4.3,30.31,WNW,293,0.9,1.1,68,0.00,,,0.00,WUHU216HW,2013-01-27 07:18:00,
2013-01-27 02:23:00,12.8,4.3,30.31,West,270,1.1,1.1,68,0.00,,,0.00,WUHU216HW,2013-01-27 07:23:00,
2013-01-27 02:28:00,12.8,4.3,30.31,WSW,248,1.1,1.1,68,0.00,,,0.00,WUHU216HW,2013-01-27 07:28:00,
2013-01-27 02:33:00,12.8,4.3,30.31,West,270,0.7,1.1,68,0.00,,,0.00,WUHU216HW,2013-01-27 07:33:00,
2013-01-27 02:38:00,12.8,4.3,30.31,West,270,0.7,1.1,68,0.00,,,0.00,WUHU216HW,2013-01-27 07:38:00,
2013-01-27 02:44:00,12.8,4.3,30.31,SW,225,0.4,1.1,68,0.00,,,0.00,WUHU216HW,2013-01-27 07:44:00,
2013-01-27 02:49:00,12.8,4.3,30.31,West,270,0.4,1.1,68,0.00,,,0.00,WUHU216HW,2013-01-27 07:49:00,
2013-01-27 02:54:00,12.6,4.1,30.31,SW,225,0.9,0.9,68,0.00,,,0.00,WUHU216HW,2013-01-27 07:54:00,
2013-01-27 02:59:00,12.6,4.1,30.31,North,0,0.0,1.3,68,0.00,,,0.00,WUHU216HW,2013-01-27 07:59:00,
2013-01-27 03:04:00,12.6,4.1,30.31,WSW,248,1.1,1.3,68,0.00,,,0.00,WUHU216HW,2013-01-27 08:04:00,
2013-01-27 03:09:00,12.6,4.4,30.30,SW,225,0.9,1.1,69,0.00,,,0.00,WUHU216HW,2013-01-27 08:09:00,
2013-01-27 03:14:00,12.6,4.4,30.30,North,0,0.0,1.1,69,0.00,,,0.00,WUHU216HW,2013-01-27 08:14:00,
2013-01-27 03:19:00,12.6,4.4,30.31,WSW,248,0.4,0.4,69,0.00,,,0.00,WUHU216HW,2013-01-27 08:19:00,
2013-01-27 03:24:00,12.4,4.2,30.31,WSW,248,0.4,0.4,69,0.00,,,0.00,WUHU216HW,2013-01-27 08:24:00,
2013-01-27 03:30:00,12.4,4.2,30.31,West,270,0.4,0.4,69,0.00,,,0.00,WUHU216HW,2013-01-27 08:30:00,
2013-01-27 03:35:00,12.4,4.2,30.31,WSW,248,0.4,0.4,69,0.00,,,0.00,WUHU216HW,2013-01-27 08:35:00,
2013-01-27 03:40:00,12.4,4.2,30.31,West,270,0.0,0.4,69,0.00,,,0.00,WUHU216HW,2013-01-27 08:40:00,
2013-01-27 03:45:00,12.2,4.0,30.31,WSW,248,0.2,0.4,69,0.00,,,0.00,WUHU216HW,2013-01-27 08:45:00,
2013-01-27 03:50:00,12.0,3.8,30.31,WSW,248,0.4,0.4,69,0.00,,,0.00,WUHU216HW,2013-01-27 08:50:00,
2013-01-27 03:55:00,12.0,3.8,30.31,WSW,248,1.1,1.1,69,0.00,,,0.00,WUHU216HW,2013-01-27 08:55:00,
2013-01-27 04:00:00,12.0,4.1,30.31,North,0,0.0,1.1,70,0.00,,,0.00,WUHU216HW,2013-01-27 09:00:00,
2013-01-27 04:06:00,12.0,4.1,30.31,SW,225,1.6,1.6,70,0.00,,,0.00,WUHU216HW,2013-01-27 09:06:00,
2013-01-27 04:11:00,11.9,4.0,30.31,North,0,0.0,1.6,70,0.00,,,0.00,WUHU216HW,2013-01-27 09:11:00,
2013-01-27 04:16:00,11.9,4.0,30.31,WSW,248,1.6,1.6,70,0.00,,,0.00,WUHU216HW,2013-01-27 09:16:00,
2013-01-27 04:21:00,11.9,4.0,30.31,SW,225,2.2,2.2,70,0.00,,,0.00,WUHU216HW,2013-01-27 09:21:00,
2013-01-27 04:26:00,11.9,4.0,30.31,South,180,2.5,2.5,70,0.00,,,0.00,WUHU216HW,2013-01-27 09:26:00,
2013-01-27 04:31:00,11.9,4.0,30.31,WSW,248,2.2,2.5,70,0.00,,,0.00,WUHU216HW,2013-01-27 09:31:00,
2013-01-27 04:36:00,12.0,4.1,30.31,West,270,2.2,2.5,70,0.00,,,0.00,WUHU216HW,2013-01-27 09:36:00,
2013-01-27 04:41:00,12.0,4.1,30.31,WSW,248,0.9,3.6,70,0.00,,,0.00,WUHU216HW,2013-01-27 09:41:00,
2013-01-27 04:47:00,12.0,4.1,30.31,WSW,248,3.1,4.0,70,0.00,,,0.00,WUHU216HW,2013-01-27 09:47:00,
2013-01-27 04:52:00,12.0,4.1,30.31,WSW,248,1.1,4.0,70,0.00,,,0.00,WUHU216HW,2013-01-27 09:52:00,
2013-01-27 04:57:00,12.0,4.1,30.31,SW,225,3.1,3.1,70,0.00,,,0.00,WUHU216HW,2013-01-27 09:57:00,
2013-01-27 05:02:00,12.0,4.4,30.31,WSW,248,2.0,3.1,71,0.00,,,0.00,WUHU216HW,2013-01-27 10:02:00,
2013-01-27 05:07:00,12.0,4.4,30.31,WSW,248,3.4,3.4,71,0.00,,,0.00,WUHU216HW,2013-01-27 10:07:00,
2013-01-27 05:12:00,12.0,4.4,30.31,North,0,0.0,3.4,71,0.00,,,0.00,WUHU216HW,2013-01-27 10:12:00,
2013-01-27 05:17:00,12.0,4.4,30.31,SW,225,1.1,3.4,71,0.00,,,0.00,WUHU216HW,2013-01-27 10:17:00,
2013-01-27 05:22:00,12.0,4.4,30.32,West,270,3.1,4.0,71,0.00,,,0.00,WUHU216HW,2013-01-27 10:22:00,
2013-01-27 05:28:00,12.0,4.4,30.32,WNW,293,1.8,4.0,71,0.00,,,0.00,WUHU216HW,2013-01-27 10:28:00,
2013-01-27 05:33:00,12.0,4.4,30.32,West,270,0.0,3.4,71,0.00,,,0.00,WUHU216HW,2013-01-27 10:33:00,
2013-01-27 05:38:00,12.0,4.4,30.32,WSW,248,2.7,4.7,71,0.00,,,0.00,WUHU216HW,2013-01-27 10:38:00,
2013-01-27 05:43:00,12.0,4.4,30.32,West,270,1.6,4.7,71,0.00,,,0.00,WUHU216HW,2013-01-27 10:43:00,
2013-01-27 05:48:00,12.0,4.4,30.32,WSW,248,1.8,3.1,71,0.00,,,0.00,WUHU216HW,2013-01-27 10:48:00,
2013-01-27 05:53:00,12.0,4.4,30.32,SSW,203,1.8,3.4,71,0.00,,,0.00,WUHU216HW,2013-01-27 10:53:00,
2013-01-27 05:58:00,12.0,4.4,30.32,WSW,248,0.4,3.4,71,0.00,,,0.00,WUHU216HW,2013-01-27 10:58:00,
2013-01-27 06:03:00,12.0,4.4,30.32,WSW,248,0.4,1.8,71,0.00,,,0.00,WUHU216HW,2013-01-27 11:03:00,
2013-01-27 06:08:00,12.0,4.4,30.32,South,180,1.1,1.1,71,0.00,,,0.00,WUHU216HW,2013-01-27 11:08:00,
2013-01-27 06:14:00,12.0,4.4,30.33,SSW,203,1.1,1.1,71,0.00,,,0.00,WUHU216HW,2013-01-27 11:14:00,
2013-01-27 06:19:00,12.0,4.4,30.33,WSW,248,1.1,1.1,71,0.00,,,0.00,WUHU216HW,2013-01-27 11:19:00,
2013-01-27 06:24:00,12.2,4.6,30.33,West,270,1.6,1.6,71,0.00,,,0.00,WUHU216HW,2013-01-27 11:24:00,
2013-01-27 06:29:00,12.2,4.6,30.33,WSW,248,0.9,1.6,71,0.00,,,0.00,WUHU216HW,2013-01-27 11:29:00,
2013-01-27 06:34:00,12.2,4.6,30.33,WSW,248,2.2,2.2,71,0.00,,,0.00,WUHU216HW,2013-01-27 11:34:00,
2013-01-27 06:39:00,12.2,4.6,30.33,WSW,248,1.1,2.2,71,0.00,,,0.00,WUHU216HW,2013-01-27 11:39:00,
2013-01-27 06:44:00,12.2,4.6,30.33,WSW,248,1.1,2.2,71,0.00,,,0.00,WUHU216HW,2013-01-27 11:44:00,
2013-01-27 06:50:00,12.2,4.6,30.33,West,270,2.5,2.5,71,0.00,,,0.00,WUHU216HW,2013-01-27 11:50:00,
2013-01-27 06:55:00,12.2,4.6,30.33,West,270,1.1,2.9,71,0.00,,,0.00,WUHU216HW,2013-01-27 11:55:00,
2013-01-27 07:00:00,12.2,4.6,30.34,WSW,248,1.3,2.9,71,0.00,,,0.00,WUHU216HW,2013-01-27 12:00:00,
2013-01-27 07:05:00,12.2,4.6,30.34,SW,225,1.8,1.8,71,0.00,,,0.00,WUHU216HW,2013-01-27 12:05:00,
2013-01-27 07:10:00,12.2,4.6,30.34,West,270,2.0,2.0,71,0.00,,,0.00,WUHU216HW,2013-01-27 12:10:00,
2013-01-27 07:15:00,12.2,4.9,30.35,West,270,1.6,2.7,72,0.00,,,0.00,WUHU216HW,2013-01-27 12:15:00,
2013-01-27 07:20:00,12.2,4.9,30.35,SW,225,2.0,2.7,72,0.00,,,0.00,WUHU216HW,2013-01-27 12:20:00,
2013-01-27 07:25:00,12.4,5.1,30.36,West,270,1.6,2.7,72,0.00,,,0.00,WUHU216HW,2013-01-27 12:25:00,
2013-01-27 07:30:00,12.2,4.9,30.36,WSW,248,0.2,2.0,72,0.00,,,0.00,WUHU216HW,2013-01-27 12:30:00,
2013-01-27 07:36:00,12.2,4.9,30.36,West,270,1.1,1.8,72,0.00,,,0.00,WUHU216HW,2013-01-27 12:36:00,
2013-01-27 07:41:00,12.2,5.2,30.36,WSW,248,2.0,2.9,73,0.00,,,0.00,WUHU216HW,2013-01-27 12:41:00,
2013-01-27 07:46:00,12.2,5.2,30.37,West,270,1.8,2.9,73,0.00,,,0.00,WUHU216HW,2013-01-27 12:46:00,
2013-01-27 07:51:00,12.2,5.2,30.36,West,270,1.8,2.7,73,0.00,,,0.00,WUHU216HW,2013-01-27 12:51:00,
2013-01-27 07:56:00,12.4,5.4,30.37,West,270,1.8,2.5,73,0.00,,,0.00,WUHU216HW,2013-01-27 12:56:00,
2013-01-27 08:01:00,12.4,5.7,30.37,WNW,293,1.8,2.5,74,0.00,,,0.00,WUHU216HW,2013-01-27 13:01:00,
2013-01-27 08:06:00,12.4,5.7,30.37,WSW,248,3.4,3.4,74,0.00,,,0.00,WUHU216HW,2013-01-27 13:06:00,
2013-01-27 08:11:00,12.4,5.7,30.37,West,270,2.9,3.4,74,0.00,,,0.00,WUHU216HW,2013-01-27 13:11:00,
2013-01-27 08:17:00,12.6,5.9,30.37,WNW,293,1.8,3.4,74,0.00,,,0.00,WUHU216HW,2013-01-27 13:17:00,
2013-01-27 08:22:00,12.8,6.1,30.38,West,270,3.4,3.4,74,0.00,,,0.00,WUHU216HW,2013-01-27 13:22:00,
2013-01-27 08:27:00,12.8,6.1,30.38,West,270,1.3,4.3,74,0.00,,,0.00,WUHU216HW,2013-01-27 13:27:00,
2013-01-27 08:32:00,13.1,6.4,30.38,West,270,1.8,4.3,74,0.00,,,0.00,WUHU216HW,2013-01-27 13:32:00,
2013-01-27 08:37:00,13.3,6.6,30.38,West,270,3.8,3.8,74,0.00,,,0.00,WUHU216HW,2013-01-27 13:37:00,
2013-01-27 08:42:00,13.5,6.8,30.38,WSW,248,1.1,4.5,74,0.00,,,0.00,WUHU216HW,2013-01-27 13:42:00,
2013-01-27 08:47:00,13.7,7.0,30.38,West,270,4.9,4.9,74,0.00,,,0.00,WUHU216HW,2013-01-27 13:47:00,
2013-01-27 08:52:00,13.8,7.1,30.38,West,270,1.8,5.4,74,0.00,,,0.00,WUHU216HW,2013-01-27 13:52:00,
2013-01-27 08:57:00,14.2,7.5,30.38,West,270,2.5,5.4,74,0.00,,,0.00,WUHU216HW,2013-01-27 13:57:00,
2013-01-27 09:02:00,14.4,7.7,30.39,West,270,4.0,4.0,74,0.00,,,0.00,WUHU216HW,2013-01-27 14:02:00,
2013-01-27 09:08:00,14.7,7.9,30.39,South,180,4.7,5.6,74,0.00,,,0.00,WUHU216HW,2013-01-27 14:08:00,
2013-01-27 09:13:00,14.9,8.1,30.39,WNW,293,1.8,5.6,74,0.00,,,0.00,WUHU216HW,2013-01-27 14:13:00,
2013-01-27 09:18:00,15.3,8.5,30.40,WSW,248,1.1,4.7,74,0.00,,,0.00,WUHU216HW,2013-01-27 14:18:00,
2013-01-27 09:23:00,15.6,8.5,30.40,WNW,293,2.7,6.9,73,0.00,,,0.00,WUHU216HW,2013-01-27 14:23:00,
2013-01-27 09:28:00,15.8,8.7,30.40,WSW,248,2.5,6.9,73,0.00,,,0.00,WUHU216HW,2013-01-27 14:28:00,
2013-01-27 09:33:00,16.2,9.1,30.40,West,270,3.4,5.8,73,0.00,,,0.00,WUHU216HW,2013-01-27 14:33:00,
2013-01-27 09:38:00,16.4,9.0,30.40,SW,225,2.7,5.8,72,0.00,,,0.00,WUHU216HW,2013-01-27 14:38:00,
2013-01-27 09:43:00,16.5,9.4,30.41,NNW,338,3.6,4.3,73,0.00,,,0.00,WUHU216HW,2013-01-27 14:43:00,
2013-01-27 09:48:00,16.9,9.8,30.41,NW,315,4.7,6.3,73,0.00,,,0.00,WUHU216HW,2013-01-27 14:48:00,
2013-01-27 09:53:00,17.1,9.7,30.40,WSW,248,3.4,6.3,72,0.00,,,0.00,WUHU216HW,2013-01-27 14:53:00,
2013-01-27 09:58:00,17.4,10.0,30.40,NNE,23,4.7,5.4,72,0.00,,,0.00,WUHU216HW,2013-01-27 14:58:00,
2013-01-27 10:03:00,17.8,10.3,30.40,West,270,5.4,6.5,72,0.00,,,0.00,WUHU216HW,2013-01-27 15:03:00,
2013-01-27 10:08:00,18.0,10.2,30.40,SE,135,4.5,8.3,71,0.00,,,0.00,WUHU216HW,2013-01-27 15:08:00,
2013-01-27 10:13:00,18.2,10.4,30.41,West,270,4.3,8.3,71,0.00,,,0.00,WUHU216HW,2013-01-27 15:13:00,
2013-01-27 10:18:00,18.5,10.4,30.41,West,270,4.0,9.8,70,0.00,,,0.00,WUHU216HW,2013-01-27 15:18:00,
2013-01-27 10:24:00,18.7,10.6,30.41,West,270,4.0,9.8,70,0.00,,,0.00,WUHU216HW,2013-01-27 15:24:00,
2013-01-27 10:29:00,19.1,10.6,30.41,WNW,293,7.4,7.4,69,0.00,,,0.00,WUHU216HW,2013-01-27 15:29:00,
2013-01-27 10:34:00,19.2,10.7,30.41,WSW,248,4.7,7.4,69,0.00,,,0.00,WUHU216HW,2013-01-27 15:34:00,
2013-01-27 10:39:00,19.2,10.7,30.41,NW,315,5.1,7.6,69,0.00,,,0.00,WUHU216HW,2013-01-27 15:39:00,
2013-01-27 10:44:00,19.6,10.8,30.41,NW,315,2.2,7.6,68,0.00,,,0.00,WUHU216HW,2013-01-27 15:44:00,
2013-01-27 10:49:00,19.8,11.0,30.41,WNW,293,3.8,8.1,68,0.00,,,0.00,WUHU216HW,2013-01-27 15:49:00,
2013-01-27 10:54:00,20.0,11.2,30.41,SW,225,4.9,8.1,68,0.00,,,0.00,WUHU216HW,2013-01-27 15:54:00,
2013-01-27 10:59:00,20.1,10.9,30.40,NW,315,4.5,7.8,67,0.00,,,0.00,WUHU216HW,2013-01-27 15:59:00,
2013-01-27 11:04:00,20.3,10.8,30.40,WSW,248,3.6,6.9,66,0.00,,,0.00,WUHU216HW,2013-01-27 16:04:00,
2013-01-27 11:09:00,20.7,11.2,30.41,West,270,6.3,6.9,66,0.00,,,0.00,WUHU216HW,2013-01-27 16:09:00,
2013-01-27 11:15:00,20.9,11.4,30.41,North,0,1.3,6.9,66,0.00,,,0.00,WUHU216HW,2013-01-27 16:15:00,
2013-01-27 11:20:00,21.0,11.1,30.40,North,0,2.0,4.0,65,0.00,,,0.00,WUHU216HW,2013-01-27 16:20:00,
2013-01-27 11:25:00,21.4,11.9,30.40,West,270,2.9,3.4,66,0.00,,,0.00,WUHU216HW,2013-01-27 16:25:00,
2013-01-27 11:30:00,21.6,11.7,30.40,SSW,203,5.6,6.0,65,0.00,,,0.00,WUHU216HW,2013-01-27 16:30:00,
2013-01-27 11:35:00,21.8,11.5,30.39,WSW,248,2.2,6.0,64,0.00,,,0.00,WUHU216HW,2013-01-27 16:35:00,
2013-01-27 11:40:00,21.9,11.6,30.39,West,270,1.1,4.3,64,0.00,,,0.00,WUHU216HW,2013-01-27 16:40:00,
2013-01-27 11:45:00,22.3,11.3,30.39,NW,315,2.0,3.8,62,0.00,,,0.00,WUHU216HW,2013-01-27 16:45:00,
2013-01-27 11:50:00,22.5,11.5,30.40,NNW,338,3.8,3.8,62,0.00,,,0.00,WUHU216HW,2013-01-27 16:50:00,
2013-01-27 11:56:00,22.8,11.4,30.40,West,270,2.9,4.7,61,0.00,,,0.00,WUHU216HW,2013-01-27 16:56:00,
2013-01-27 12:01:00,22.8,10.6,30.39,WNW,293,3.8,5.6,59,0.00,,,0.00,WUHU216HW,2013-01-27 17:01:00,
2013-01-27 12:06:00,23.0,10.8,30.40,West,270,5.4,6.9,59,0.00,,,0.00,WUHU216HW,2013-01-27 17:06:00,
2013-01-27 12:11:00,23.0,10.8,30.40,WSW,248,4.0,7.2,59,0.00,,,0.00,WUHU216HW,2013-01-27 17:11:00,
2013-01-27 12:16:00,23.4,11.2,30.39,WNW,293,4.0,7.6,59,0.00,,,0.00,WUHU216HW,2013-01-27 17:16:00,
2013-01-27 12:21:00,23.6,11.4,30.39,West,270,2.5,7.6,59,0.00,,,0.00,WUHU216HW,2013-01-27 17:21:00,
2013-01-27 12:26:00,23.7,11.5,30.38,WSW,248,2.2,5.4,59,0.00,,,0.00,WUHU216HW,2013-01-27 17:26:00,
2013-01-27 12:31:00,24.1,11.9,30.38,WNW,293,4.7,5.4,59,0.00,,,0.00,WUHU216HW,2013-01-27 17:31:00,
2013-01-27 12:37:00,24.3,10.0,30.38,NW,315,1.1,5.8,54,0.00,,,0.00,WUHU216HW,2013-01-27 17:37:00,
2013-01-27 12:42:00,24.3,10.9,30.38,WNW,293,5.4,5.8,56,0.00,,,0.00,WUHU216HW,2013-01-27 17:42:00,
2013-01-27 12:47:00,24.5,10.2,30.37,NW,315,2.2,8.5,54,0.00,,,0.00,WUHU216HW,2013-01-27 17:47:00,
2013-01-27 12:52:00,24.5,11.0,30.37,West,270,4.5,8.5,56,0.00,,,0.00,WUHU216HW,2013-01-27 17:52:00,
2013-01-27 12:57:00,24.6,10.3,30.37,WNW,293,2.7,7.2,54,0.00,,,0.00,WUHU216HW,2013-01-27 17:57:00,
2013-01-27 13:02:00,24.8,10.9,30.37,WSW,248,3.4,7.2,55,0.00,,,0.00,WUHU216HW,2013-01-27 18:02:00,
2013-01-27 13:07:00,25.0,11.1,30.37,WNW,293,2.9,5.1,55,0.00,,,0.00,WUHU216HW,2013-01-27 18:07:00,
2013-01-27 13:12:00,25.2,10.9,30.37,West,270,5.8,6.0,54,0.00,,,0.00,WUHU216HW,2013-01-27 18:12:00,
2013-01-27 13:18:00,25.4,11.0,30.37,West,270,3.4,6.0,54,0.00,,,0.00,WUHU216HW,2013-01-27 18:18:00,
2013-01-27 13:23:00,25.5,10.7,30.37,NW,315,1.8,5.4,53,0.00,,,0.00,WUHU216HW,2013-01-27 18:23:00,
2013-01-27 13:28:00,25.5,10.7,30.37,SSE,158,2.5,5.4,53,0.00,,,0.00,WUHU216HW,2013-01-27 18:28:00,
2013-01-27 13:33:00,25.7,10.9,30.36,NNW,338,2.0,4.7,53,0.00,,,0.00,WUHU216HW,2013-01-27 18:33:00,
2013-01-27 13:38:00,25.9,10.6,30.36,WNW,293,2.5,5.8,52,0.00,,,0.00,WUHU216HW,2013-01-27 18:38:00,
2013-01-27 13:43:00,25.9,10.6,30.36,NW,315,2.7,5.8,52,0.00,,,0.00,WUHU216HW,2013-01-27 18:43:00,
2013-01-27 13:48:00,26.1,10.8,30.36,West,270,3.1,6.0,52,0.00,,,0.00,WUHU216HW,2013-01-27 18:48:00,
2013-01-27 13:54:00,26.3,11.0,30.36,South,180,2.7,7.6,52,0.00,,,0.00,WUHU216HW,2013-01-27 18:54:00,
2013-01-27 13:59:00,26.4,11.1,30.36,SSE,158,3.1,7.6,52,0.00,,,0.00,WUHU216HW,2013-01-27 18:59:00,
2013-01-27 14:04:00,26.4,10.7,30.36,WSW,248,2.9,6.7,51,0.00,,,0.00,WUHU216HW,2013-01-27 19:04:00,
2013-01-27 14:09:00,26.4,11.1,30.36,West,270,1.8,6.7,52,0.00,,,0.00,WUHU216HW,2013-01-27 19:09:00,
2013-01-27 14:14:00,26.6,11.3,30.36,SSW,203,1.6,4.0,52,0.00,,,0.00,WUHU216HW,2013-01-27 19:14:00,
2013-01-27 14:19:00,26.6,10.8,30.36,West,270,4.5,6.5,51,0.00,,,0.00,WUHU216HW,2013-01-27 19:19:00,
2013-01-27 14:24:00,26.4,10.2,30.36,WNW,293,2.9,6.9,50,0.00,,,0.00,WUHU216HW,2013-01-27 19:24:00,
2013-01-27 14:29:00,26.4,10.2,30.36,West,270,4.0,6.9,50,0.00,,,0.00,WUHU216HW,2013-01-27 19:29:00,
2013-01-27 14:34:00,26.4,10.7,30.36,WSW,248,4.5,5.8,51,0.00,,,0.00,WUHU216HW,2013-01-27 19:34:00,
2013-01-27 14:39:00,26.6,10.4,30.36,WSW,248,1.8,5.8,50,0.00,,,0.00,WUHU216HW,2013-01-27 19:39:00,
2013-01-27 14:44:00,26.6,10.8,30.36,WSW,248,3.4,5.4,51,0.00,,,0.00,WUHU216HW,2013-01-27 19:44:00,
2013-01-27 14:50:00,26.6,10.4,30.36,West,270,2.2,4.9,50,0.00,,,0.00,WUHU216HW,2013-01-27 19:50:00,
2013-01-27 14:55:00,26.8,10.1,30.36,North,0,2.5,4.7,49,0.00,,,0.00,WUHU216HW,2013-01-27 19:55:00,
2013-01-27 15:00:00,26.8,10.6,30.36,West,270,1.8,4.7,50,0.00,,,0.00,WUHU216HW,2013-01-27 20:00:00,
2013-01-27 15:05:00,26.8,10.6,30.36,WNW,293,0.4,4.7,50,0.00,,,0.00,WUHU216HW,2013-01-27 20:05:00,
2013-01-27 15:10:00,27.0,10.8,30.36,WNW,293,5.1,5.1,50,0.00,,,0.00,WUHU216HW,2013-01-27 20:10:00,
2013-01-27 15:15:00,27.0,10.8,30.36,WSW,248,0.4,6.3,50,0.00,,,0.00,WUHU216HW,2013-01-27 20:15:00,
2013-01-27 15:20:00,27.0,10.3,30.36,WSW,248,1.1,6.9,49,0.00,,,0.00,WUHU216HW,2013-01-27 20:20:00,
2013-01-27 15:25:00,27.2,10.5,30.36,West,270,4.9,6.9,49,0.00,,,0.00,WUHU216HW,2013-01-27 20:25:00,
2013-01-27 15:30:00,27.2,10.5,30.36,WSW,248,2.9,4.9,49,0.00,,,0.00,WUHU216HW,2013-01-27 20:30:00,
2013-01-27 15:35:00,27.0,10.3,30.36,WNW,293,2.0,4.9,49,0.00,,,0.00,WUHU216HW,2013-01-27 20:35:00,
2013-01-27 15:40:00,27.0,9.8,30.36,SW,225,2.9,3.4,48,0.00,,,0.00,WUHU216HW,2013-01-27 20:40:00,
2013-01-27 15:45:00,27.0,9.8,30.36,WNW,293,1.3,3.8,48,0.00,,,0.00,WUHU216HW,2013-01-27 20:45:00,
2013-01-27 15:51:00,27.0,9.8,30.36,WSW,248,1.8,4.3,48,0.00,,,0.00,WUHU216HW,2013-01-27 20:51:00,
2013-01-27 15:56:00,27.2,10.0,30.36,WSW,248,1.8,4.3,48,0.00,,,0.00,WUHU216HW,2013-01-27 20:56:00,
2013-01-27 16:01:00,27.2,10.0,30.36,WSW,248,1.1,3.4,48,0.00,,,0.00,WUHU216HW,2013-01-27 21:01:00,
2013-01-27 16:06:00,27.2,9.5,30.36,WSW,248,2.7,4.0,47,0.00,,,0.00,WUHU216HW,2013-01-27 21:06:00,
2013-01-27 16:11:00,27.2,9.5,30.36,WSW,248,2.5,5.1,47,0.00,,,0.00,WUHU216HW,2013-01-27 21:11:00,
2013-01-27 16:16:00,27.2,10.0,30.37,WSW,248,2.0,5.1,48,0.00,,,0.00,WUHU216HW,2013-01-27 21:16:00,
2013-01-27 16:21:00,27.2,10.0,30.38,West,270,4.7,4.7,48,0.00,,,0.00,WUHU216HW,2013-01-27 21:21:00,
2013-01-27 16:26:00,27.2,9.5,30.38,West,270,2.5,6.0,47,0.00,,,0.00,WUHU216HW,2013-01-27 21:26:00,
2013-01-27 16:32:00,27.2,9.5,30.38,WNW,293,3.4,6.0,47,0.00,,,0.00,WUHU216HW,2013-01-27 21:32:00,
2013-01-27 16:37:00,27.0,9.8,30.38,West,270,1.3,4.3,48,0.00,,,0.00,WUHU216HW,2013-01-27 21:37:00,
2013-01-27 16:42:00,26.8,9.6,30.38,West,270,1.8,4.3,48,0.00,,,0.00,WUHU216HW,2013-01-27 21:42:00,
2013-01-27 16:47:00,26.8,9.6,30.38,West,270,1.8,4.0,48,0.00,,,0.00,WUHU216HW,2013-01-27 21:47:00,
2013-01-27 16:52:00,26.6,9.4,30.38,West,270,2.7,4.0,48,0.00,,,0.00,WUHU216HW,2013-01-27 21:52:00,
2013-01-27 16:57:00,26.6,9.4,30.38,WSW,248,1.8,3.4,48,0.00,,,0.00,WUHU216HW,2013-01-27 21:57:00,
2013-01-27 17:02:00,26.4,9.3,30.38,West,270,2.0,4.0,48,0.00,,,0.00,WUHU216HW,2013-01-27 22:02:00,
2013-01-27 17:07:00,26.4,9.3,30.38,West,270,1.8,4.0,48,0.00,,,0.00,WUHU216HW,2013-01-27 22:07:00,
2013-01-27 17:12:00,26.3,9.2,30.38,SW,225,1.8,2.5,48,0.00,,,0.00,WUHU216HW,2013-01-27 22:12:00,
2013-01-27 17:17:00,26.3,9.2,30.38,WSW,248,2.9,4.0,48,0.00,,,0.00,WUHU216HW,2013-01-27 22:17:00,
2013-01-27 17:22:00,26.1,9.0,30.38,WSW,248,0.9,4.0,48,0.00,,,0.00,WUHU216HW,2013-01-27 22:22:00,
2013-01-27 17:27:00,26.1,9.0,30.38,WNW,293,0.4,2.9,48,0.00,,,0.00,WUHU216HW,2013-01-27 22:27:00,
2013-01-27 17:32:00,25.9,8.8,30.38,West,270,1.3,1.6,48,0.00,,,0.00,WUHU216HW,2013-01-27 22:32:00,
2013-01-27 17:37:00,25.9,8.8,30.38,WSW,248,1.3,2.2,48,0.00,,,0.00,WUHU216HW,2013-01-27 22:37:00,
2013-01-27 17:42:00,25.7,8.6,30.38,WNW,293,0.2,2.2,48,0.00,,,0.00,WUHU216HW,2013-01-27 22:42:00,
2013-01-27 17:47:00,25.7,8.6,30.38,West,270,0.7,1.8,48,0.00,,,0.00,WUHU216HW,2013-01-27 22:47:00,
2013-01-27 17:52:00,25.7,8.6,30.39,WNW,293,0.7,1.8,48,0.00,,,0.00,WUHU216HW,2013-01-27 22:52:00,
2013-01-27 17:57:00,25.5,8.4,30.39,WNW,293,1.3,1.8,48,0.00,,,0.00,WUHU216HW,2013-01-27 22:57:00,
2013-01-27 18:03:00,25.5,8.9,30.39,West,270,1.1,1.8,49,0.00,,,0.00,WUHU216HW,2013-01-27 23:03:00,
2013-01-27 18:08:00,25.5,8.9,30.40,West,270,1.6,1.8,49,0.00,,,0.00,WUHU216HW,2013-01-27 23:08:00,
2013-01-27 18:13:00,25.4,8.8,30.40,WNW,293,2.2,3.6,49,0.00,,,0.00,WUHU216HW,2013-01-27 23:13:00,
2013-01-27 18:18:00,25.4,8.8,30.40,WSW,248,2.0,3.6,49,0.00,,,0.00,WUHU216HW,2013-01-27 23:18:00,
2013-01-27 18:23:00,25.4,8.8,30.40,West,270,1.1,2.2,49,0.00,,,0.00,WUHU216HW,2013-01-27 23:23:00,
2013-01-27 18:28:00,25.2,8.6,30.40,WNW,293,2.0,3.1,49,0.00,,,0.00,WUHU216HW,2013-01-27 23:28:00,
2013-01-27 18:33:00,25.0,8.4,30.40,West,270,0.7,3.1,49,0.00,,,0.00,WUHU216HW,2013-01-27 23:33:00,
2013-01-27 18:38:00,25.0,8.4,30.40,WNW,293,0.4,2.0,49,0.00,,,0.00,WUHU216HW,2013-01-27 23:38:00,
2013-01-27 18:43:00,25.0,8.9,30.40,West,270,0.9,1.3,50,0.00,,,0.00,WUHU216HW,2013-01-27 23:43:00,
2013-01-27 18:48:00,24.8,8.7,30.40,WSW,248,0.7,1.3,50,0.00,,,0.00,WUHU216HW,2013-01-27 23:48:00,
2013-01-27 18:53:00,24.6,8.5,30.40,North,0,0.0,1.3,50,0.00,,,0.00,WUHU216HW,2013-01-27 23:53:00,
2013-01-27 18:59:00,24.6,8.5,30.40,North,0,0.0,0.7,50,0.00,,,0.00,WUHU216HW,2013-01-27 23:59:00,
2013-01-27 19:04:00,24.6,9.0,30.39,North,0,0.0,0.0,51,0.00,,,0.00,WUHU216HW,2013-01-28 00:04:00,
2013-01-27 19:09:00,24.6,9.0,30.39,North,0,0.0,0.0,51,0.00,,,0.00,WUHU216HW,2013-01-28 00:09:00,
2013-01-27 19:14:00,24.5,8.9,30.39,North,0,0.0,0.0,51,0.00,,,0.00,WUHU216HW,2013-01-28 00:14:00,
2013-01-27 19:19:00,24.3,8.7,30.38,North,0,0.0,0.0,51,0.00,,,0.00,WUHU216HW,2013-01-28 00:19:00,
2013-01-27 19:24:00,24.3,8.7,30.38,North,0,0.0,0.0,51,0.00,,,0.00,WUHU216HW,2013-01-28 00:24:00,
2013-01-27 19:29:00,23.9,8.3,30.38,North,0,0.0,0.0,51,0.00,,,0.00,WUHU216HW,2013-01-28 00:29:00,
2013-01-27 19:34:00,23.7,8.6,30.38,North,0,0.0,0.0,52,0.00,,,0.00,WUHU216HW,2013-01-28 00:34:00,
2013-01-27 19:39:00,23.6,8.5,30.39,North,0,0.0,0.0,52,0.00,,,0.00,WUHU216HW,2013-01-28 00:39:00,
2013-01-27 19:45:00,23.6,8.5,30.39,North,0,0.0,0.0,52,0.00,,,0.00,WUHU216HW,2013-01-28 00:45:00,
2013-01-27 19:50:00,23.4,8.3,30.38,North,0,0.0,0.0,52,0.00,,,0.00,WUHU216HW,2013-01-28 00:50:00,
2013-01-27 19:55:00,23.2,8.1,30.38,North,0,0.0,0.0,52,0.00,,,0.00,WUHU216HW,2013-01-28 00:55:00,
2013-01-27 20:00:00,23.2,8.6,30.38,North,0,0.0,0.0,53,0.00,,,0.00,WUHU216HW,2013-01-28 01:00:00,
2013-01-27 20:05:00,23.0,8.4,30.38,North,0,0.0,0.0,53,0.00,,,0.00,WUHU216HW,2013-01-28 01:05:00,
2013-01-27 20:10:00,22.8,8.2,30.38,SE,135,0.9,0.9,53,0.00,,,0.00,WUHU216HW,2013-01-28 01:10:00,
2013-01-27 20:15:00,22.8,8.2,30.38,North,0,0.0,0.9,53,0.00,,,0.00,WUHU216HW,2013-01-28 01:15:00,
2013-01-27 20:20:00,22.8,8.6,30.38,SE,135,0.0,0.9,54,0.00,,,0.00,WUHU216HW,2013-01-28 01:20:00,
2013-01-27 20:25:00,22.7,8.5,30.38,SE,135,0.0,0.0,54,0.00,,,0.00,WUHU216HW,2013-01-28 01:25:00,
2013-01-27 20:30:00,22.5,8.3,30.39,SW,225,0.4,0.4,54,0.00,,,0.00,WUHU216HW,2013-01-28 01:30:00,
2013-01-27 20:35:00,22.1,8.0,30.39,North,0,0.0,0.4,54,0.00,,,0.00,WUHU216HW,2013-01-28 01:35:00,
2013-01-27 20:40:00,22.1,8.4,30.39,SW,225,0.0,0.4,55,0.00,,,0.00,WUHU216HW,2013-01-28 01:40:00,
2013-01-27 20:45:00,22.1,8.4,30.40,West,270,0.7,0.7,55,0.00,,,0.00,WUHU216HW,2013-01-28 01:45:00,
2013-01-27 20:50:00,21.9,8.2,30.40,WSW,248,0.4,0.7,55,0.00,,,0.00,WUHU216HW,2013-01-28 01:50:00,
2013-01-27 20:55:00,21.8,8.5,30.41,SW,225,0.2,0.7,56,0.00,,,0.00,WUHU216HW,2013-01-28 01:55:00,
2013-01-27 21:01:00,21.6,8.3,30.41,WSW,248,0.9,0.9,56,0.00,,,0.00,WUHU216HW,2013-01-28 02:01:00,
2013-01-27 21:06:00,21.4,8.1,30.40,North,0,0.0,0.9,56,0.00,,,0.00,WUHU216HW,2013-01-28 02:06:00,
2013-01-27 21:11:00,21.4,8.5,30.40,WSW,248,0.4,0.9,57,0.00,,,0.00,WUHU216HW,2013-01-28 02:11:00,
2013-01-27 21:16:00,21.4,8.5,30.39,North,0,0.0,0.4,57,0.00,,,0.00,WUHU216HW,2013-01-28 02:16:00,
2013-01-27 21:21:00,21.4,8.5,30.39,North,0,0.0,0.4,57,0.00,,,0.00,WUHU216HW,2013-01-28 02:21:00,
2013-01-27 21:26:00,21.4,8.5,30.39,North,0,0.0,0.0,57,0.00,,,0.00,WUHU216HW,2013-01-28 02:26:00,
2013-01-27 21:31:00,21.4,8.5,30.39,North,0,0.0,0.0,57,0.00,,,0.00,WUHU216HW,2013-01-28 02:31:00,
2013-01-27 21:36:00,21.2,8.3,30.39,North,0,0.0,0.0,57,0.00,,,0.00,WUHU216HW,2013-01-28 02:36:00,
2013-01-27 21:41:00,21.0,8.2,30.39,North,0,0.0,0.0,57,0.00,,,0.00,WUHU216HW,2013-01-28 02:41:00,
2013-01-27 21:46:00,20.9,8.1,30.39,North,0,0.0,0.0,57,0.00,,,0.00,WUHU216HW,2013-01-28 02:46:00,
2013-01-27 21:51:00,20.7,7.9,30.38,North,0,0.0,0.0,57,0.00,,,0.00,WUHU216HW,2013-01-28 02:51:00,
2013-01-27 21:56:00,20.7,7.9,30.38,North,0,0.0,0.0,57,0.00,,,0.00,WUHU216HW,2013-01-28 02:56:00,
2013-01-27 22:02:00,20.7,7.9,30.38,North,0,0.0,0.0,57,0.00,,,0.00,WUHU216HW,2013-01-28 03:02:00,
2013-01-27 22:07:00,20.7,7.9,30.38,North,0,0.0,0.0,57,0.00,,,0.00,WUHU216HW,2013-01-28 03:07:00,
2013-01-27 22:12:00,20.5,7.7,30.38,North,0,0.0,0.0,57,0.00,,,0.00,WUHU216HW,2013-01-28 03:12:00,
2013-01-27 22:17:00,20.3,7.9,30.38,North,0,0.0,0.0,58,0.00,,,0.00,WUHU216HW,2013-01-28 03:17:00,
2013-01-27 22:22:00,20.0,7.6,30.37,North,0,0.0,0.0,58,0.00,,,0.00,WUHU216HW,2013-01-28 03:22:00,
2013-01-27 22:27:00,20.0,7.6,30.38,North,0,0.0,0.0,58,0.00,,,0.00,WUHU216HW,2013-01-28 03:27:00,
2013-01-27 22:32:00,20.0,8.0,30.38,SE,135,1.3,2.0,59,0.00,,,0.00,WUHU216HW,2013-01-28 03:32:00,
2013-01-27 22:37:00,19.8,7.8,30.38,North,0,0.0,2.0,59,0.00,,,0.00,WUHU216HW,2013-01-28 03:37:00,
2013-01-27 22:42:00,19.8,7.8,30.37,North,0,0.0,1.3,59,0.00,,,0.00,WUHU216HW,2013-01-28 03:42:00,
2013-01-27 22:47:00,19.8,8.2,30.37,North,0,0.0,0.0,60,0.00,,,0.00,WUHU216HW,2013-01-28 03:47:00,
2013-01-27 22:52:00,19.8,8.2,30.37,North,0,0.0,0.0,60,0.00,,,0.00,WUHU216HW,2013-01-28 03:52:00,
2013-01-27 22:57:00,19.6,8.0,30.37,North,0,0.0,0.0,60,0.00,,,0.00,WUHU216HW,2013-01-28 03:57:00,
2013-01-27 23:02:00,19.4,7.8,30.36,North,0,0.0,0.0,60,0.00,,,0.00,WUHU216HW,2013-01-28 04:02:00,
2013-01-27 23:07:00,19.2,7.6,30.36,North,0,0.0,0.0,60,0.00,,,0.00,WUHU216HW,2013-01-28 04:07:00,
2013-01-27 23:12:00,19.2,8.0,30.36,North,0,0.0,0.0,61,0.00,,,0.00,WUHU216HW,2013-01-28 04:12:00,
2013-01-27 23:17:00,19.1,7.9,30.37,North,0,0.0,0.0,61,0.00,,,0.00,WUHU216HW,2013-01-28 04:17:00,
2013-01-27 23:22:00,18.9,7.7,30.37,North,0,0.0,0.0,61,0.00,,,0.00,WUHU216HW,2013-01-28 04:22:00,
2013-01-27 23:27:00,18.9,7.7,30.37,North,0,0.0,0.0,61,0.00,,,0.00,WUHU216HW,2013-01-28 04:27:00,
2013-01-27 23:32:00,18.7,7.5,30.38,North,0,0.0,0.0,61,0.00,,,0.00,WUHU216HW,2013-01-28 04:32:00,
2013-01-27 23:38:00,18.5,7.3,30.38,North,0,0.0,0.0,61,0.00,,,0.00,WUHU216HW,2013-01-28 04:38:00,
2013-01-27 23:43:00,18.5,7.3,30.38,North,0,0.0,0.0,61,0.00,,,0.00,WUHU216HW,2013-01-28 04:43:00,
2013-01-27 23:48:00,18.5,7.7,30.38,North,0,0.0,0.0,62,0.00,,,0.00,WUHU216HW,2013-01-28 04:48:00,
2013-01-27 23:53:00,18.5,7.7,30.38,ESE,113,0.0,0.0,62,0.00,,,0.00,WUHU216HW,2013-01-28 04:53:00,
2013-01-27 23:58:00,18.5,7.7,30.38,ESE,113,0.0,0.0,62,0.00,,,0.00,WUHU216HW,2013-01-28 04:58:00,